Retour au catalogue

STARLINK-31460

ActifCommunicationsVLEO
NORAD 59008·PAYLOAD·🇺🇸 United States

Lancé Feb 23, 2024 depuis Vandenberg Space Force Base

Loading…

Prochains Passages (prochaines 24 heures)

TLE

FraisSource: CelesTrak SupGP

Époque: Sep 15, 2026, 02:06 UTC

1 59008C 24036L   26258.08798611  .00011498  00000+0  33963-3 0  2587
2 59008  53.1563 276.7463 0001340  97.9923 285.2125 15.34391884    11

Suivez STARLINK-31460 en temps réel avec AllMySat

Download on the App Store